Temperature
17 17 17 17 17 17 17 17 17 17 17 17 17 17 18 18 18 18 18 18 18 18 17 17 17 17 17 17 17 17 17 17 17 16 16 16 16 16 16 16 16 16 16
17 17 17 17 17 17 17 17 17 17 17 17 17 17 17 18 17 17 17 17 18 18 18 17 17 17 17 17 17 17 17 17 17 17 16 16 16 16 16 16 16 16 16
17 17 17 17 17 17 17 17 17 17 17 17 17 17 17 17 17 17 17 17 17 17 18 18 17 17 17 17 17 17 17 17 17 17 17 16 16 16 16 16 16 16 16
18 17 17 17 17 17 17 17 17 17 17 17 17 17 18 18 17 17 17 17 17 17 17 17 17 17 17 17 17 17 17 17 17 17 16 16 16 16 16 16 16 16 16
17 17 17 17 17 17 17 17 17 17 17 17 17 18 18 18 17 17 17 17 17 17 17 17 17 17 17 17 17 17 17 17 17 16 16 16 16 16 16 16 16 16 16
17 17 17 17 17 17 17 17 17 17 17 17 18 18 18 18 18 18 17 17 17 17 17 17 17 17 17 17 17 17 17 17 17 16 16 16 16 16 16 16 16 16 16
17 17 17 17 17 17 17 17 17 17 17 17 17 18 18 18 18 17 17 17 17 17 17 17 17 17 17 17 17 17 17 17 17 16 16 16 16 16 16 16 16 16 16
17 17 17 17 17 17 17 17 17 17 17 17 17 18 18 18 18 18 17 17 17 17 17 17 17 17 17 16 17 17 17 17 17 16 16 16 16 16 16 16 16 16 16
17 17 17 17 17 17 17 17 17 17 17 17 17 17 18 18 18 18 17 17 17 17 17 17 17 17 16 16 16 16 17 17 17 17 16 16 16 16 16 16 16 16 16
17 17 18 17 17 17 17 17 17 17 17 17 17 17 17 17 17 17 17 17 17 17 17 17 17 17 16 16 16 16 16 17 16 16 16 16 16 16 16 16 16 16 16
17 17 17 18 18 17 17 17 17 17 17 17 17 17 17 17 17 17 17 17 17 17 17 16 16 16 16 16 16 16 16 16 16 16 16 16 16 16 16 16 16 16 16
17 17 17 18 17 17 17 17 17 17 17 17 17 17 17 17 17 17 17 17 17 17 17 16 16 16 16 16 16 16 16 16 16 16 16 16 16 16 16 16 16 16 16
17 17 17 17 17 17 17 17 17 17 17 17 17 17 17 17 17 17 17 17 17 17 17 16 16 16 16 16 16 16 16 16 16 16 16 16 16 16 16 16 16 16 16
17 17 17 17 17 17 17 17 17 17 17 17 17 17 17 17 17 16 16 16 17 17 17 16 16 16 16 16 16 16 16 16 16 16 16 16 16 16 16 15 15 15 15
17 17 17 17 17 17 17 17 17 17 17 17 16 17 16 16 16 16 16 16 16 17 17 16 16 16 16 15 15 15 15 15 16 16 16 15 15 15 15 15 15 15 15
17 17 17 17 17 17 17 17 16 16 16 17 16 16 16 16 16 16 16 16 16 16 16 16 15 15 15 15 15 15 15 15 15 15 15 15 15 15 15 15 15 15 15
16 17 16 16 16 16 16 16 16 16 16 16 16 16 16 16 16 16 15 15 15 16 15 15 15 15 15 15 15 15 15 14 15 15 15 15 15 15 15 15 15 15 15
16 16 16 16 16 16 16 16 16 16 16 16 16 16 15 15 15 15 15 15 15 15 15 15 15 14 15 14 15 15 14 15 14 15 15 15 15 15 15 15 15 15 15
16 16 16 16 16 16 16 16 15 15 15 15 15 15 15 15 15 15 15 15 15 15 14 14 14 14 14 14 14 14 14 14 14 14 14 15 15 15 15 15 15 15 15
15 15 15 15 15 15 15 15 15 15 15 15 15 15 15 14 14 14 14 14 14 14 14 14 14 14 14 14 14 14 14 14 14 14 14 14 14 14 14 15 15 15 15
15 15 15 15 15 15 15 15 15 15 15 14 14 15 14 14 14 14 14 14 14 14 14 14 14 14 14 14 14 14 14 14 14 14 14 14 14 14 14 14 14 14 14
15 15 14 14 14 14 15 15 15 14 14 14 14 14 14 14 14 14 14 14 14 14 14 14 14 14 13 14 14 14 14 14 14 14 14 14 14 14 14 14 14 14 14
14 14 14 14 14 14 14 14 15 14 14 14 14 14 14 14 14 14 14 14 14 14 14 13 13 13 13 13 13 13 13 13 14 14 13 14 14 13 13 14 14 14 14
14 14 14 14 14 14 14 14 14 14 13 13 13 13 13 13 13 13 13 13 13 13 13 13 13 13 13 13 13 13 13 13 13 13 13 13 13 13 13 13 13 13 13
14 14 13 13 13 13 13 13 13 13 13 13 13 13 12 13 13 13 13 13 13 13 13 13 13 13 13 13 12 12 12 13 13 13 13 13 13 13 13 13 13 13 13
13 13 13 13 13 13 13 13 13 12 12 12 12 12 12 12 12 12 12 12 12 12 12 12 12 12 12 12 12 12 12 12 13 13 13 12 13 13 13 13 13 13 12
Wind_Speed
1 1 1 1 2 3 3 3 4 4 4 5 5 5 5 5 4 4 5 10 11 11 11 10 10 11 11 11 11 10 10 10 10 11 11 10 10 10 9 9 10 10 10
0 1 1 1 2 2 3 3 3 3 4 4 5 5 5 5 4 5 5 8 12 12 11 11 11 11 11 11 11 11 11 10 10 11 11 11 11 11 11 10 10 10 9
1 1 1 2 1 3 3 3 3 3 3 4 4 4 4 4 4 4 4 5 8 12 13 12 11 11 11 11 11 12 11 11 11 11 11 11 11 11 11 11 10 10 9
1 2 1 1 1 2 2 3 3 2 2 2 2 2 2 3 4 4 4 5 5 6 10 12 11 11 11 11 11 11 11 11 11 12 12 12 12 12 12 12 11 11 10
2 2 2 1 2 2 2 2 2 2 2 2 2 2 3 3 3 3 3 4 4 5 5 9 11 10 10 10 10 10 10 11 12 12 12 12 11 11 11 11 11 11 11
1 2 2 2 2 2 2 1 1 1 1 1 2 1 2 2 2 2 2 3 3 4 4 4 6 8 10 10 10 10 10 10 10 11 11 12 12 11 12 12 12 12 12
1 1 1 2 2 2 2 2 2 2 2 1 1 1 1 2 2 2 2 1 2 3 3 3 3 4 6 10 9 9 9 10 10 10 10 11 12 12 12 12 13 13 13
1 1 1 2 2 2 3 2 2 2 2 2 1 2 2 2 2 2 2 2 2 2 3 3 3 3 4 4 6 9 9 9 9 10 10 11 11 12 12 12 13 13 13
1 1 1 2 2 3 3 3 3 3 2 2 1 1 1 1 0 1 2 2 2 2 2 2 3 4 4 4 4 8 9 9 9 9 9 9 10 11 12 12 12 13 14
1 1 1 1 2 2 2 3 3 3 3 3 2 1 1 0 1 1 2 2 2 2 2 3 3 3 4 4 4 3 6 8 8 8 8 8 8 9 10 11 11 12 14
1 1 2 1 1 2 2 3 2 3 3 3 2 2 2 2 3 3 2 2 2 2 2 3 2 2 3 3 3 3 5 6 7 7 8 9 9 9 9 10 10 10 11
1 1 1 1 2 1 1 2 2 3 3 2 3 2 2 2 3 3 3 3 3 2 2 1 2 2 2 3 3 3 5 6 7 7 7 8 9 9 9 10 10 11 11
1 1 1 1 1 1 1 1 1 2 2 3 3 3 3 3 3 3 3 3 3 3 2 2 2 2 2 3 3 4 5 6 6 6 7 8 9 9 10 10 11 11 11
1 2 1 1 1 1 0 0 1 1 1 2 2 2 3 3 3 3 4 3 4 3 3 3 2 2 2 2 2 4 4 6 7 7 7 7 8 8 9 10 11 10 10
1 1 1 1 1 0 0 1 1 1 1 2 2 2 3 2 2 3 3 4 4 4 4 3 3 2 2 2 2 3 4 5 7 7 7 7 7 8 8 9 9 9 10
2 1 1 0 0 0 1 1 1 1 1 1 1 1 2 2 2 3 3 4 4 5 5 3 3 3 2 3 3 4 5 6 7 7 7 7 7 7 7 8 8 9 9
1 1 1 1 1 1 1 1 1 1 1 1 1 2 2 2 3 3 3 3 4 4 5 5 4 3 3 4 4 5 6 7 6 7 8 8 8 7 7 7 8 8 8
1 1 1 1 1 1 1 1 2 2 2 2 2 2 2 2 3 3 3 4 4 4 5 5 4 4 5 5 5 6 5 6 6 6 9 9 8 8 8 9 9 8 8
1 1 2 2 2 2 2 2 2 3 3 3 3 3 3 3 4 4 4 4 4 4 4 5 5 4 5 5 5 5 6 5 7 6 9 11 10 10 10 9 9 9 9
2 2 2 2 1 2 2 2 3 3 3 3 3 3 3 4 4 4 4 5 5 5 4 5 5 5 5 5 5 5 5 5 6 5 5 7 9 12 11 10 9 9 9
2 2 1 2 1 2 2 2 3 3 3 3 3 3 3 2 3 3 4 4 4 4 4 5 5 5 5 4 5 5 5 5 5 5 5 5 5 6 8 9 10 9 10
1 1 2 2 2 2 3 3 3 3 2 2 3 3 3 2 2 2 3 3 4 4 5 5 5 5 6 6 5 6 5 6 5 4 5 5 5 6 5 6 7 9 10
1 2 2 2 2 2 3 2 3 3 3 3 3 3 3 2 2 4 3 4 4 4 5 7 7 7 6 6 6 7 6 6 7 5 4 6 5 5 5 5 6 9 9
2 2 2 2 2 2 2 2 4 4 3 3 3 3 3 2 3 4 4 3 4 4 4 6 6 7 6 6 6 7 7 7 7 5 5 7 6 6 6 4 5 7 9
2 2 2 2 2 2 2 2 4 3 2 2 2 2 2 3 2 3 4 4 4 4 2 2 3 4 4 5 5 5 6 6 6 5 4 6 6 5 6 5 4 8 9
2 3 2 2 2 2 1 2 4 3 2 2 2 2 1 2 3 3 4 4 5 5 5 4 3 4 5 5 5 6 6 6 6 6 3 4 6 5 5 5 4 4 5
Wind_Direction
172 140 156 170 182 170 174 190 192 193 203 205 210 212 215 214 214 207 178 170 186 195 204 210 208 206 205 207 210 211 210 210 208 207 207 209 211 211 212 213 211 212 214
153 190 185 198 198 188 188 196 194 200 210 214 217 216 223 218 209 212 205 179 186 192 199 206 211 212 212 213 212 211 211 212 212 211 213 214 213 214 214 215 212 211 209
299 272 218 213 205 183 187 193 197 201 209 216 219 219 219 222 216 217 219 211 192 191 197 205 210 213 214 214 214 213 213 212 212 214 214 213 212 211 211 212 212 212 213
255 252 225 213 197 198 195 191 203 200 211 229 225 233 223 207 210 214 215 208 202 195 192 196 205 212 218 221 221 218 214 213 213 215 216 216 214 214 214 215 215 214 212
237 236 224 207 214 205 207 210 183 210 221 234 214 207 220 213 202 200 199 205 195 203 196 183 195 208 218 221 222 220 216 215 215 215 214 214 213 215 216 214 214 215 216
253 245 217 191 218 207 206 200 196 207 224 223 214 195 208 202 191 191 203 197 191 201 202 195 191 198 208 216 220 221 219 218 216 216 215 215 215 217 218 216 216 216 217
282 254 246 185 218 204 206 200 202 195 192 163 174 182 183 181 180 191 198 190 187 192 200 197 204 209 199 204 211 218 219 218 217 217 219 219 220 220 220 218 218 218 218
313 246 234 221 215 194 189 195 196 210 199 179 208 213 201 183 179 192 191 191 208 205 206 200 198 208 223 205 194 203 212 214 217 219 221 222 223 224 223 222 221 220 219
339 321 288 252 224 222 200 201 202 204 209 206 211 245 246 231 122 177 188 198 209 228 228 192 202 209 219 216 199 191 203 213 217 223 224 224 225 225 223 223 225 223 221
348 322 289 260 248 246 214 223 212 215 210 211 204 236 288 304 245 215 202 190 197 221 236 236 228 212 216 213 201 193 196 212 219 224 222 222 223 225 223 224 226 227 224
4 356 329 298 264 254 243 246 229 225 221 228 227 207 203 209 235 242 244 238 225 227 225 236 239 234 215 211 205 198 194 206 211 218 221 222 223 224 224 225 227 228 224
25 24 348 321 289 277 249 241 239 224 228 236 242 232 227 230 227 238 247 249 259 261 244 234 237 234 217 211 201 164 181 196 206 213 221 226 227 227 226 228 230 231 231
5 23 359 344 313 305 283 252 222 235 226 229 234 236 248 253 248 251 244 252 262 262 249 242 221 228 234 223 198 176 189 198 208 214 222 228 229 229 230 231 233 234 236
0 24 23 27 5 328 305 201 220 217 216 224 231 240 248 256 252 244 245 246 255 257 248 249 240 233 235 229 191 200 210 196 207 216 224 230 231 232 233 233 234 235 237
337 6 359 44 44 4 278 225 213 223 217 223 222 217 239 247 245 245 241 242 251 258 258 243 242 236 238 241 224 243 246 207 204 215 225 231 233 234 233 234 234 236 237
318 325 331 331 223 201 214 232 220 221 227 227 241 243 250 248 247 245 242 244 247 251 258 252 254 250 263 257 247 254 247 222 206 214 223 225 227 229 230 228 232 236 238
270 270 288 282 256 228 215 210 241 250 253 263 264 243 252 262 255 248 249 251 253 251 250 256 253 249 251 258 261 259 250 247 226 202 215 221 224 225 227 230 232 234 235
259 258 278 273 261 237 218 215 233 236 242 250 258 259 259 251 252 256 253 251 253 250 247 253 254 253 251 250 252 255 253 250 248 203 208 216 223 225 229 232 233 234 234
266 273 268 265 259 244 228 230 238 240 240 249 255 256 259 256 255 255 257 255 253 248 245 246 253 261 260 259 257 257 258 256 252 223 207 210 218 226 232 232 234 238 238
255 264 262 265 260 268 268 251 236 238 241 246 251 256 256 257 257 259 256 255 253 250 241 244 249 249 253 255 255 257 255 251 255 252 240 231 220 221 224 224 230 235 235
253 250 257 264 250 249 284 282 252 237 239 247 252 257 256 271 296 286 281 265 255 252 247 246 250 254 257 257 257 255 258 262 256 253 255 247 234 236 229 225 229 236 236
323 298 275 278 285 307 21 356 303 259 248 250 260 265 258 249 264 263 289 298 288 263 262 258 256 263 265 261 261 264 263 266 267 257 263 261 253 253 246 242 226 223 228
332 328 312 296 290 346 21 349 310 270 256 259 264 271 272 274 278 272 260 249 264 284 275 266 267 272 275 274 270 266 264 263 268 273 267 268 262 261 262 246 197 207 221
286 291 301 300 297 335 359 325 298 261 261 257 257 265 272 275 285 284 269 265 264 263 258 254 262 272 280 285 275 270 273 264 262 259 257 267 266 266 265 255 187 204 218
277 272 279 295 296 313 349 325 295 267 264 258 261 274 287 276 335 304 266 268 274 277 257 255 266 274 293 289 284 279 276 270 268 260 248 264 272 275 269 257 228 205 216
270 272 274 277 284 298 336 325 291 278 275 266 257 251 2 341 349 311 266 268 273 281 285 277 259 249 256 254 248 261 270 272 275 274 258 264 273 278 276 267 269 245 236
Height
1533 1534 1534 1534 1536 1537 1538 1540 1541 1543 1544 1546 1548 1549 1550 1551 1552 1553 1553 1552 1553 1554 1555 1556 1557 1558 1559 1560 1561 1561 1562 1563 1564 1564 1565 1566 1567 1567 1568 1569 1570 1571 1571
1534 1534 1534 1535 1536 1537 1538 1539 1540 1541 1543 1544 1546 1547 1548 1549 1550 1550 1551 1551 1551 1552 1553 1554 1555 1556 1557 1558 1559 1560 1560 1561 1562 1562 1563 1564 1565 1565 1566 1567 1568 1569 1569
1534 1534 1534 1535 1536 1536 1537 1538 1539 1540 1541 1543 1544 1545 1546 1547 1548 1548 1549 1550 1550 1551 1552 1552 1553 1554 1555 1556 1557 1557 1558 1559 1559 1560 1561 1562 1562 1563 1564 1565 1565 1566 1567
1534 1534 1535 1535 1535 1536 1536 1537 1538 1539 1540 1541 1542 1543 1544 1545 1546 1546 1547 1548 1549 1550 1550 1551 1552 1552 1553 1554 1554 1555 1556 1556 1557 1558 1558 1559 1560 1561 1561 1562 1563 1564 1565
1534 1535 1535 1535 1535 1536 1536 1537 1537 1538 1538 1539 1540 1541 1542 1543 1544 1545 1546 1547 1547 1548 1549 1549 1550 1550 1551 1551 1552 1553 1554 1554 1555 1555 1556 1557 1557 1558 1559 1559 1560 1561 1562
1535 1535 1535 1535 1535 1535 1535 1536 1536 1537 1537 1537 1539 1540 1541 1542 1543 1543 1544 1545 1546 1547 1548 1548 1548 1548 1548 1549 1550 1551 1551 1552 1553 1553 1554 1554 1555 1555 1556 1557 1557 1558 1559
1535 1535 1535 1535 1535 1535 1535 1535 1536 1536 1537 1537 1538 1539 1540 1541 1542 1542 1543 1544 1545 1545 1545 1546 1546 1547 1547 1547 1547 1548 1549 1549 1550 1551 1551 1552 1552 1553 1553 1554 1555 1555 1556
1535 1535 1534 1534 1534 1534 1534 1534 1534 1535 1536 1537 1538 1538 1539 1541 1541 1541 1542 1542 1543 1544 1544 1544 1544 1544 1545 1546 1545 1545 1546 1547 1547 1548 1548 1548 1549 1550 1550 1551 1552 1552 1553
1534 1534 1534 1534 1533 1534 1534 1534 1534 1534 1535 1536 1537 1538 1539 1539 1540 1541 1541 1541 1541 1542 1543 1543 1543 1543 1543 1543 1543 1543 1544 1544 1545 1545 1545 1545 1546 1547 1547 1548 1548 1549 1550
1534 1534 1533 1533 1533 1533 1533 1533 1534 1534 1534 1535 1536 1537 1538 1538 1539 1540 1540 1540 1540 1540 1541 1541 1542 1541 1541 1541 1541 1541 1541 1542 1542 1542 1542 1542 1543 1543 1544 1544 1545 1546 1546
1533 1533 1533 1532 1532 1532 1532 1532 1533 1533 1533 1534 1535 1536 1536 1537 1538 1538 1538 1539 1539 1539 1539 1539 1539 1539 1539 1539 1539 1538 1538 1539 1539 1539 1539 1540 1540 1540 1540 1541 1542 1542 1543
1533 1532 1532 1532 1532 1532 1531 1531 1531 1532 1532 1532 1533 1534 1535 1536 1536 1536 1536 1536 1537 1538 1537 1537 1537 1537 1537 1537 1536 1536 1536 1536 1536 1536 1536 1537 1537 1537 1537 1538 1538 1539 1539
1532 1531 1531 1531 1531 1530 1530 1530 1530 1530 1531 1531 1531 1532 1533 1534 1534 1534 1534 1534 1535 1535 1535 1535 1534 1534 1534 1534 1534 1533 1533 1533 1533 1533 1533 1533 1534 1534 1534 1534 1534 1535 1535
1532 1531 1530 1530 1529 1529 1529 1529 1529 1529 1529 1529 1530 1530 1531 1532 1532 1532 1532 1533 1533 1533 1533 1533 1532 1532 1532 1531 1531 1530 1530 1530 1530 1530 1530 1530 1530 1530 1530 1530 1531 1531 1532
1531 1530 1529 1528 1528 1528 1528 1528 1528 1527 1528 1528 1528 1528 1529 1529 1529 1530 1530 1530 1531 1530 1530 1530 1530 1529 1529 1529 1528 1528 1527 1527 1527 1526 1526 1526 1526 1526 1526 1526 1527 1527 1527
1529 1528 1528 1527 1527 1526 1526 1526 1526 1526 1526 1526 1526 1526 1526 1527 1527 1527 1527 1527 1528 1528 1527 1527 1527 1527 1526 1526 1526 1525 1524 1523 1523 1523 1523 1522 1522 1522 1522 1522 1522 1522 1523
1527 1526 1526 1526 1526 1525 1525 1524 1525 1524 1524 1524 1524 1524 1524 1524 1524 1525 1525 1525 1525 1525 1524 1524 1524 1523 1523 1523 1522 1522 1522 1521 1521 1519 1519 1519 1519 1519 1519 1518 1518 1518 1518
1525 1525 1524 1524 1524 1524 1523 1523 1522 1522 1522 1522 1522 1522 1522 1522 1522 1522 1522 1522 1522 1522 1522 1520 1520 1520 1519 1519 1518 1518 1518 1518 1517 1516 1515 1515 1515 1515 1515 1515 1514 1514 1513
1524 1523 1523 1522 1522 1522 1521 1521 1520 1520 1520 1520 1520 1520 1520 1520 1519 1519 1519 1519 1519 1519 1518 1518 1517 1517 1516 1516 1515 1515 1514 1513 1514 1513 1512 1511 1511 1511 1511 1511 1510 1510 1509
1522 1521 1521 1521 1520 1520 1519 1518 1518 1518 1518 1517 1517 1517 1517 1517 1516 1516 1516 1516 1516 1515 1515 1515 1514 1513 1513 1512 1511 1511 1510 1510 1510 1510 1509 1508 1507 1507 1507 1506 1506 1505 1505
1520 1519 1519 1518 1518 1518 1517 1516 1515 1515 1515 1515 1514 1514 1514 1513 1513 1513 1513 1513 1512 1512 1512 1512 1511 1510 1509 1508 1507 1507 1507 1506 1506 1506 1505 1505 1504 1504 1503 1502 1501 1501 1501
1518 1518 1517 1516 1516 1515 1514 1513 1512 1512 1512 1512 1511 1511 1511 1510 1510 1510 1510 1509 1509 1509 1508 1508 1507 1506 1504 1503 1503 1503 1503 1503 1502 1503 1501 1501 1501 1500 1499 1499 1497 1497 1496
1516 1515 1514 1514 1513 1512 1511 1510 1510 1509 1509 1509 1508 1508 1508 1508 1507 1506 1506 1506 1505 1505 1504 1504 1503 1502 1501 1500 1499 1499 1499 1499 1498 1498 1498 1497 1497 1496 1496 1495 1493 1492 1492
1513 1512 1512 1511 1510 1509 1509 1508 1507 1506 1506 1506 1505 1505 1504 1503 1503 1503 1502 1502 1501 1501 1500 1500 1499 1498 1497 1496 1496 1496 1495 1495 1494 1494 1494 1494 1493 1492 1492 1491 1489 1488 1488
1511 1510 1509 1508 1507 1506 1506 1505 1504 1504 1503 1502 1502 1501 1500 1500 1500 1499 1499 1498 1497 1497 1497 1496 1495 1494 1493 1492 1492 1492 1492 1492 1491 1491 1490 1490 1489 1488 1488 1487 1486 1484 1484
1509 1508 1507 1506 1505 1504 1502 1502 1501 1501 1500 1500 1499 1498 1498 1497 1497 1496 1495 1495 1494 1493 1493 1492 1491 1490 1489 1488 1488 1488 1488 1488 1487 1487 1486 1485 1485 1484 1483 1483 1482 1481 1480